Content
SEND FEEDBACK

Daily
Averages
Monthly
Summary
United States of America

EAST ELLSWORTH, WISCONSIN


Home > North America > United States > Wisconsin
Elevation: 1116 feet     Latitude: 44 43N     Longitude: 092 28W

WEATHER
 
SELECT A DAY
Number of Records: 460,837;   Date Range: 1/1/95 - 7/26/14
 
SHARE

PRINT THIS DATA

[ ← Previous Day ]
WEATHER ALMANAC - JANUARY 31, 2013
[ Next Day → ]
[ °C ]   °F
Weather ElementAverageHighLow
Temperature5.4 °F12.2 °F (12:35 am)-5.8 °F (11:55 pm)
Dewpoint-3.5 °F5 °F (12:35 am)-13 °F (11:35 pm)
Humidity67.1 %73 % (12:35 am)56 % (1:55 pm)
Barometer29.97 in30.24 in (11:55 pm)29.72 in (12:35 am)
Wind Speed12.1 mph18.4 mph (4:55 pm)
Wind Gust25.3 mph (5:35 pm)
Weather ElementAverage
Visibility7 mi
Wind DirectionWNW (306.7 °)

Weather ElementTotal
Precipitation---
Heating Degree Days61.8 (Base 65)
Averaged from 69 records on January 31, 2013
WEATHER CONDITIONS BREAKOUT
WIND DIRECTION BREAKOUT
WEATHER BY HOUR - JANUARY 31, 2013
[ °C ]   °F
Local TimeTemperatureDewpointHumidityBarometerVisibilityWind DirectionWind SpeedGust SpeedPrecipitationEventsConditions
12:35 AM12.2 °F5.0 °F73 %29.72 in10.0 miNW (310°)12.7 mph20.7 mphOvercast
12:55 AM12.2 °F3.2 °F67 %29.73 in7.0 miWNW (300°)13.8 mphOvercast
1:15 AM12.2 °F3.2 °F67 %29.73 in7.0 miNW (310°)9.2 mph20.7 mphOvercast
1:35 AM10.4 °F3.2 °F73 %29.74 in10.0 miNW (310°)11.5 mph20.7 mphOvercast
1:55 AM10.4 °F1.4 °F67 %29.75 in10.0 miNW (310°)9.2 mph20.7 mphOvercast
2:15 AM10.4 °F1.4 °F67 %29.76 in10.0 miWNW (290°)16.1 mph19.6 mphMostly Cloudy
2:35 AM8.6 °F1.4 °F73 %29.76 in5.0 miWNW (300°)13.8 mph18.4 mphHaze
2:55 AM8.6 °F1.4 °F73 %29.76 in5.0 miWNW (300°)9.2 mphSnowLight Snow
3:15 AM8.6 °F1.4 °F73 %29.76 in5.0 miWNW (300°)6.9 mphSnowLight Snow
3:35 AM8.6 °F1.4 °F73 %29.76 in10.0 miNW (320°)9.2 mph17.3 mphOvercast
3:55 AM8.6 °F1.4 °F73 %29.77 in10.0 miNW (310°)5.8 mphOvercast
4:15 AM8.6 °F1.4 °F73 %29.77 in7.0 miNW (310°)11.5 mph17.3 mphOvercast
4:35 AM8.6 °F1.4 °F73 %29.78 in10.0 miWNW (300°)15.0 mph19.6 mphOvercast
4:55 AM8.6 °F1.4 °F73 %29.79 in7.0 miWNW (290°)11.5 mph16.1 mphOvercast
5:15 AM8.6 °F1.4 °F73 %29.79 in5.0 miNW (310°)11.5 mph16.1 mphHaze
5:35 AM8.6 °F-0.4 °F67 %29.80 in10.0 miNW (310°)11.5 mph19.6 mphOvercast
5:55 AM8.6 °F-0.4 °F67 %29.80 in7.0 miWNW (300°)10.4 mphOvercast
6:15 AM6.8 °F-0.4 °F72 %29.82 in7.0 miNW (320°)12.7 mph17.3 mphOvercast
6:35 AM6.8 °F-0.4 °F72 %29.83 in7.0 miWNW (300°)15.0 mph18.4 mphOvercast
6:55 AM6.8 °F-0.4 °F72 %29.84 in5.0 miNW (320°)12.7 mph18.4 mphSnowLight Snow
7:15 AM6.8 °F-2.2 °F67 %29.84 in7.0 miNW (310°)10.4 mph20.7 mphOvercast
7:35 AM6.8 °F-0.4 °F72 %29.86 in4.0 miNW (310°)9.2 mphSnowLight Snow
7:55 AM6.8 °F-0.4 °F72 %29.86 in1.8 miNW (310°)12.7 mph19.6 mphSnowLight Snow
8:15 AM6.8 °F-0.4 °F72 %29.87 in1.8 miWNW (290°)12.7 mph19.6 mphSnowLight Snow
8:35 AM6.8 °F-0.4 °F72 %29.88 in2.0 miWNW (300°)11.5 mph18.4 mphSnowLight Snow
8:55 AM6.8 °F-2.2 °F67 %29.89 in7.0 miNW (320°)11.5 mph16.1 mphOvercast
9:20 AM6.8 °F-0.4 °F72 %29.91 in2.5 miNW (320°)11.5 mph19.6 mphSnowLight Snow
9:35 AM6.8 °F-2.2 °F67 %29.92 in10.0 miNNW (330°)11.5 mph18.4 mphMostly Cloudy
9:55 AM6.8 °F-2.2 °F67 %29.93 in2.5 miNW (320°)10.4 mph16.1 mphHaze
10:15 AM6.8 °F-2.2 °F67 %29.94 in1.5 miNW (320°)11.5 mph19.6 mphSnowLight Snow
10:35 AM6.8 °F-4.0 °F61 %29.95 in3.0 miNW (310°)15.0 mphHaze
11:00 AM6.8 °F-4.0 °F61 %29.96 in5.0 miNNW (330°)11.5 mph20.7 mphHaze
11:15 AM6.8 °F-2.2 °F67 %29.96 in4.0 miNW (320°)13.8 mphHaze
11:36 AM6.8 °F-2.2 °F67 %29.96 in2.0 miNW (310°)8.1 mph16.1 mphSnowLight Snow
11:55 AM6.8 °F-4.0 °F61 %29.97 in4.0 miNW (320°)8.1 mph21.9 mphHaze
12:15 PM6.8 °F-2.2 °F67 %29.97 in3.0 miNW (310°)9.2 mph21.9 mphHaze
12:36 PM5.0 °F-4.0 °F66 %29.98 in2.5 miNW (320°)11.5 mphHaze
12:55 PM6.8 °F-4.0 °F61 %29.99 in5.0 miNNW (330°)15.0 mph24.2 mphHaze
1:15 PM5.0 °F-5.8 °F61 %29.99 in3.0 miNW (320°)12.7 mph20.7 mphHaze
1:36 PM6.8 °F-2.2 °F67 %30.00 in2.5 miNW (320°)10.4 mph16.1 mphHaze
1:55 PM5.0 °F-7.6 °F56 %30.01 in10.0 miNW (320°)10.4 mph24.2 mphMostly Cloudy
2:15 PM6.8 °F-5.8 °F56 %30.01 in10.0 miNW (310°)15.0 mph21.9 mphScattered Clouds
2:36 PM6.8 °F-4.0 °F61 %30.02 in2.5 miNW (310°)12.7 mph23.0 mphHaze
2:55 PM5.0 °F-5.8 °F61 %30.03 in5.0 miNW (310°)12.7 mph18.4 mphHaze
3:15 PM6.8 °F-4.0 °F61 %30.04 in5.0 miNW (310°)10.4 mph24.2 mphHaze
3:35 PM5.0 °F-5.8 °F61 %30.05 in10.0 miNW (320°)13.8 mph23.0 mphScattered Clouds
3:55 PM5.0 °F-4.0 °F66 %30.06 in5.0 miNW (310°)9.2 mph21.9 mphHaze
4:15 PM5.0 °F-5.8 °F61 %30.07 in7.0 miNW (310°)13.8 mph18.4 mphOvercast
4:35 PM5.0 °F-2.2 °F72 %30.08 in2.5 miNW (310°)10.4 mph18.4 mphSnowLight Snow
4:55 PM5.0 °F-5.8 °F61 %30.08 in7.0 miWNW (300°)18.4 mph24.2 mphMostly Cloudy
5:15 PM3.2 °F-5.8 °F66 %30.10 in10.0 miWNW (300°)12.7 mph21.9 mphMostly Cloudy
5:35 PM3.2 °F-7.6 °F61 %30.10 in10.0 miWNW (300°)13.8 mph25.3 mphClear
5:55 PM3.2 °F-5.8 °F66 %30.11 in10.0 miWNW (300°)11.5 mph25.3 mphClear
6:15 PM3.2 °F-5.8 °F66 %30.13 in10.0 miWNW (300°)17.3 mph21.9 mphClear
6:35 PM3.2 °F-5.8 °F66 %30.14 in10.0 miWNW (300°)13.8 mph17.3 mphClear
6:55 PM3.2 °F-5.8 °F66 %30.15 in10.0 miWNW (290°)13.8 mph18.4 mphScattered Clouds
7:15 PM1.4 °F-7.6 °F66 %30.15 in10.0 miWNW (290°)13.8 mph23.0 mphScattered Clouds
7:35 PM1.4 °F-7.6 °F66 %30.15 in10.0 miWNW (300°)12.7 mph18.4 mphClear
8:15 PM1.4 °F-9.4 °F61 %30.17 in10.0 miWNW (300°)11.5 mph20.7 mphClear
8:35 PM-0.4 °F-7.6 °F72 %30.18 in10.0 miWest (280°)11.5 mph18.4 mphClear
8:55 PM-0.4 °F-9.4 °F66 %30.18 in10.0 miWNW (290°)12.7 mphClear
9:15 PM-0.4 °F-9.4 °F66 %30.19 in10.0 miWNW (300°)11.5 mph17.3 mphClear
9:35 PM-0.4 °F-9.4 °F66 %30.20 in10.0 miWNW (290°)11.5 mph19.6 mphClear
10:15 PM-2.2 °F-11.2 °F66 %30.21 in10.0 miWNW (290°)16.1 mph19.6 mphClear
10:35 PM-2.2 °F-11.2 °F66 %30.22 in10.0 miWNW (290°)15.0 mph20.7 mphClear
10:55 PM-2.2 °F-11.2 °F66 %30.22 in10.0 miWNW (290°)15.0 mph21.9 mphClear
11:15 PM-4.0 °F-11.2 °F71 %30.23 in10.0 miWNW (300°)10.4 mph16.1 mphClear
11:35 PM-4.0 °F-13.0 °F65 %30.23 in10.0 miWNW (300°)15.0 mph18.4 mphClear
11:55 PM-5.8 °F-13.0 °F71 %30.24 in10.0 miWNW (300°)10.4 mph18.4 mphClear
Hourly data recorded from KRGK, located miles away from East Ellsworth, Wisconsin







STORIES FROM OUR PARTNERS